sat.trackr.live / text

‹ back to catalog

PREFIRE-2

NORAD 59881 · 2024-099A

PAYLOAD ACTIVE UNKNOWN

§ Identity

Operator
Country
US
Launch date
2024-05-25
Launch site
RLLB
Launch vehicle
Mass (kg)
RCS (m²)

External: N2YO · Heavens-Above · Gunter

§ Orbital elements

Epoch: 2026-09-22T12:56:26.853216Z

Period
94.64 min
Inclination
97.3963°
Eccentricity
0.0010701
Mean motion
15.21611245 rev/d
Perigee alt
493.6 km
Apogee alt
508.3 km
Semi-major
6,879.1 km
B*
1.0654e-4
RAAN
120.1070°
Arg perigee
219.3595°
Mean anomaly
140.6865°
Rev number
12,893

§ Raw data

PREFIRE-21 59881U 24099A   26265.53919969  .00002338  00000+0  10654-3 0  99912 59881  97.3963 120.1070 0010701 219.3595 140.6865 15.21611245128935

JSON: /api/v1/satellites/59881 · /tle

For live sub-satellite position, see the globe view (requires WebGL).

§ Visibility from observer

Set your observer location to see the next 7 days of passes ≥ 10°. The values pass through the URL so the page stays shareable.

No JS? Fill the form by hand. The geolocation button needs JavaScript.

§ Radio — SatNOGS DB

ModeDescriptionDownlinkUplink
S-band telemetry 2.213 GHz

1 transmitter · refreshed weekly from db.satnogs.org